Regional Weather Roundup
Issued by NWS Boston, MA

Home | Current Version | Previous Version | Text Only | Print | Product List | Glossary On
Versions: 1 2 3 4 5 6 7 8 9 10 11 12 13 14 15 16 17 18 19 20 21 22 23 24 25 26 27
000
ASUS41 KBOX 281610
RWRBOX

REGIONAL WEATHER ROUNDUP
NATIONAL WEATHER SERVICE TAUNTON MA
1200 PM EDT THU JUL 28 2016

NOTE:  "FAIR" INDICATES FEW OR NO CLOUDS BELOW 12,000 FEET WITH NO
SIGNIFICANT WEATHER AND/OR OBSTRUCTIONS TO VISIBILITY.  THE FOLLOWING
OBSERVATION LOCATIONS DO NOT REPORT PRESENT WEATHER...PROVINCETOWN...
SMITHFIELD...BLOCK ISLAND...KEENE...AND OXFORD.

MAZALL-281700-
EASTERN MASSACHUSETTS

CITY           SKY/WX    TMP DP  RH WIND       PRES   REMARKS
BOSTON         PTSUNNY   90  57  32 SW12G20   29.88F
BEVERLY        CLOUDY    92  60  34 W10       29.87F HX  91
LAWRENCE       CLOUDY    91  59  33 VRB5      29.89F HX  90
BEDFORD        MOSUNNY   91  55  29 MISG      29.87F
BLUE HILL        N/A     90  58  33 SW8       29.90F
NORWOOD        PTSUNNY   91  61  36 W7        29.88F HX  91
MARSHFIELD     CLOUDY    91  61  35 CALM      29.88F HX  91
PLYMOUTH       MOSUNNY   89  59  36 SW12      29.90F
TAUNTON        MOSUNNY   91  60  35 S13       29.89F HX  90
NEW BEDFORD    MOSUNNY   92  67  43 S13       29.89F HX  95
$$

MAZALL-281700-
CAPE COD AND THE ISLANDS

CITY           SKY/WX    TMP DP  RH WIND       PRES   REMARKS
FALMOUTH       NOT AVBL
HYANNIS        SUNNY     83  73  72 SW13      29.90F
CHATHAM        MOSUNNY   84  74  71 SW8       29.93S HX  91
PROVINCETOWN   MOSUNNY   87  68  52 S9        29.91F HX  90
NANTUCKET      MOSUNNY   76  70  82 S13       29.94S
MARTHAS VNYRD  MOSUNNY   80  74  81 SW12      29.93S
$$

MAZALL-281700-
CENTRAL AND WESTERN MASSACHUSETTS

CITY           SKY/WX    TMP DP  RH WIND       PRES   REMARKS
WORCESTER      PTSUNNY   84  57  39 W6        29.94F
FITCHBURG      CLOUDY    91  60  35 SW10      29.89F HX  90
ORANGE         CLOUDY    88  60  38 W8        29.91F
SPRINGFIELD    CLOUDY    89  59  36 VRB3      29.89F
WESTFIELD      CLOUDY    89  61  38 CALM      29.90F
NORTH ADAMS    CLOUDY    85  64  49 CALM      29.92F
PITTSFIELD     MOSUNNY   82  63  52 SW5       29.94F
$$

RIZALL-281700-
RHODE ISLAND

CITY           SKY/WX    TMP DP  RH WIND       PRES   REMARKS
PROVIDENCE     PTSUNNY   86  71  60 SE10      29.90F HX  91
NEWPORT        SUNNY     82  72  71 S8        29.92S
BLOCK ISLAND   FOG       77  73  88 SW13      29.93S VSB 1
SMITHFIELD     MOSUNNY   90  61  37 SW7       29.91F
WESTERLY       SUNNY     83  70  64 S8        29.92F
$$

CTZALL-281700-
CONNECTICUT

CITY           SKY/WX    TMP DP  RH WIND       PRES   REMARKS
BRADLEY INTL   CLOUDY    90  61  37 CALM      29.90F HX  90
HARTFORD       PTSUNNY   91  66  43 SE6       29.89F HX  93
BRIDGEPORT     CLOUDY    84  69  60 S6        29.91F
DANBURY        PTSUNNY   87  61  41 W6        29.93F
GROTON         MOSUNNY   80  73  79 S9        29.91F
NEW HAVEN      PTSUNNY   83  70  64 S8        29.91F
CHESTER        FAIR      90  61  37 W3        29.92S
MERIDEN        PTSUNNY   92  60  34 CALM      29.90F HX  91
WILLIMANTIC    MOSUNNY   89  63  41 VRB6      29.91F HX  90
OXFORD         MOSUNNY   84  61  45 VRB5      29.96F
$$

MEZ002-015-021-024-NHZ003-005-008-011-012-014-VTZ005-008-281700-
NORTHERN NEW ENGLAND

CITY           SKY/WX    TMP DP  RH WIND       PRES   REMARKS
PORTLAND ME    PTSUNNY   86  66  51 S8        29.87F
BANGOR ME      PTSUNNY   88  68  51 S10       29.86F HX  91
CONCORD NH     MOSUNNY   89  63  41 VRB3      29.88F HX  90
MANCHESTER NH  CLOUDY    90  62  39 W6        29.86F HX  90
NASHUA NH      CLOUDY    90  64  42 VRB6      29.88F HX  91
PORTSMOUTH NH  NOT AVBL
JAFFREY NH     CLOUDY    86  59  39 VRB6      29.94F
KEENE NH       CLOUDY    87  63  44 S7        29.90F
BURLINGTON VT  CLOUDY    78  65  63 N5        29.90S
MT. WASHINGTON MOSUNNY   59  52  77 W8          N/A
$$

NYZ052-076-281700-
EASTERN NEW YORK

CITY           SKY/WX    TMP DP  RH WIND       PRES   REMARKS
ALBANY         CLOUDY    85  64  49 S7        29.90F
NEW YORK CITY  PTSUNNY   92  61  35 NW5       29.89F HX  92
$$

ANZALL-281700-
MARINE OBSERVATIONS

STATION/POSITION TIME  TEMP    WIND        PRES    VSBY  WAVE
                       AIR SEA DIR/SP/G                  HT/PER
                 (UTC) (F)     (DEG/KT/KT) (MB)    (MI)  (FT/S)
BOSTON BUOY      1550   75 73  110/  4/  6 1012.1F         1
BUZZARDS BAY     1500   72     210/ 10/ 11 1013.9R
NANTUCKET SOUND  1550   75 74  230/ 12/ 12 1013.0F         1/ 3
MASS BAY-STELLWA 1504   72 71  180/  6/  6 1012.4R  1 7/8  1
ISLE OF SHOALS   1500   75     170/  8/  9 1011.9F
S OF BLOCK IS    1525      74                N/A           1/ 7
$$

......................KEY.........................
  SKY/WX - SKY CONDITION/PRESENT WEATHER
  TMP    - TEMPERATURE IN FAHRENHEIT
  DWPT   - DEWPOINT IN FAHRENHEIT
  RH     - RELATIVE HUMIDITY IN PERCENT
  WIND   - DIRECTION AND SPEED IN MPH
  PRES   - MEAN SEA LEVEL PRESSURE IN INCHES OF HG
  WCI    - WIND CHILL INDEX
  VSB    - VISIBILITY IN MILES
  HX     - HEAT INDEX
  TC     - TEMPERATURE IN CELSIUS
  VRB    - VARIABLE WIND DIRECTION
  N/A    - NOT AVAILABLE




USA.gov is the U.S. government's official web portal to all federal, state and local government web resources and services.